Regional Weather Roundup
Issued by NWS

Home | Current Version | Previous Version | Text Only | Print | Product List | Glossary Off
Versions: 1 2 3 4 5 6 7 8 9 10 11 12 13 14 15 16 17 18 19 20 21 22 23 24 25 26 27 28 29 30 31 32 33 34 35 36 37 38 39 40 41 42 43 44 45 46 47 48 49 50

437
ASUS45 KABQ 301410
RWRNM
NEW MEXICO REGIONAL WEATHER ROUNDUP
NATIONAL WEATHER SERVICE ALBUQUERQUE NM
800 AM MDT SUN APR 30 2017

NOTE: "FAIR" MEANS FEW OR NO CLOUDS BELOW 12,000 FEET AGL WITH NO
       SIGNIFICANT WEATHER OR OBSTRUCTIONS TO VISION.

      THIS PRODUCT IS RELEASED AS TWO VERSIONS.  ONE VERSION NEAR
      THE TOP OF THE HOUR CONTAINING PRELIMINARY DATA FROM ALBUQUERQUE
      AND OTHER STATIONS.  A FINAL VERSION WITH ADDITIONAL DATA IS
      ISSUED ABOUT 10 MINUTES AFTER THE HOUR.

NMZ501-503-504-510>518-301500-
NORTHWEST PLATEAU/NORTHCENTRAL MOUNTAINS

CITY           SKY/WX    TMP DP  RH WIND       PRES   REMARKS
FARMINGTON     FAIR      38  19  46 NW15      30.04R WCI  29
LOS ALAMOS     FAIR      32  26  80 CALM      30.01R
SANTA FE       PTSUNNY   33  32  96 W8        30.01R WCI  26
TAOS             N/A     28  19  69 NW6       30.01R WCI  22
ANGEL FIRE     FAIR      23  17  78 CALM      29.95R

$$
NMZ402-403-502-505>509-301500-
WESTCENTRAL MOUNTAINS/SOUTHWEST MOUNTAINS

CITY           SKY/WX    TMP DP  RH WIND       PRES   REMARKS
GALLUP         FAIR      35  24  64 W8        30.13R WCI  29
GRANTS         FAIR      37  23  58 N10       30.09S WCI  29
SILVER CITY    FAIR      44  24  46 NW12      30.12R

$$
NMZ407-409-411-412-301500-
SOUTHERN DESERTS

CITY           SKY/WX    TMP DP  RH WIND       PRES   REMARKS
DEMING         FAIR      44  27  51 W8        30.12R
LAS CRUCES     FAIR      44  29  55 W6        30.11R
HOLLOMAN AFB   FAIR      39  35  84 SE7       30.11R WCI  34
ALAMOGORDO     FAIR      39  36  87 CALM      30.09R
T OR C         FAIR      42  30  62 SW7       30.06S

$$
NMZ519>523-301500-
CENTRAL VALLEYS/CENTRAL HIGHLANDS

CITY           SKY/WX    TMP DP  RH WIND       PRES   REMARKS
ALBUQUERQUE    FAIR      37  35  92 SW5       30.06R WCI  33
DOUBLE EAGLE   MOSUNNY   34  32  93 CALM      30.06R
MORIARTY ARPT  FAIR      38  31  77 W18       30.00S WCI  28
CLINES CORNERS CLOUDY    31  28  89 W21       29.98R WCI  18
BELEN          CLOUDY    36  36 100 SE3       30.07R
SOCORRO        FOG       35  35  99 S6        30.07R VSB 1/2 WCI  30

$$
NMZ524>526-539-540-301500-
SOUTHCENTRAL MOUNTAINS

CITY           SKY/WX    TMP DP  RH WIND       PRES   REMARKS
RUIDOSO        FAIR      36  25  64 NW20G30   30.03R WCI  25

$$
NMZ527>531-301500-
NORTHEAST HIGHLANDS/NORTHEAST PLAINS

CITY           SKY/WX    TMP DP  RH WIND       PRES   REMARKS
LAS VEGAS      FAIR      22  22 100 W6        29.92S WCI  14
RATON          FAIR      32  12  43 N20G28    29.91R WCI  20
CLAYTON        MIX PCPN  30  28  92 NW37G48   29.80R VSB 1/4 WCI  14

$$
NMZ532>537-301500-
EASTCENTRAL PLAINS

CITY           SKY/WX    TMP DP  RH WIND       PRES   REMARKS
SANTA ROSA     FAIR      34  32  95 S3        29.94S
TUCUMCARI      CLOUDY    36  32  85 W13       29.92R WCI  27
CANNON AFB     CLOUDY    37  37 100 NW17      29.95R WCI  27
CLOVIS AIRPORT FAIR      36  28  75 NW21G26   29.93R WCI  24

$$
NMZ028-029-538-301500-
SOUTHEAST PLAINS

CITY           SKY/WX    TMP DP  RH WIND       PRES   REMARKS
ROSWELL        FAIR      42  31  64 S12       30.00F
ARTESIA        FAIR      41  36  81 SE9       30.01S
CARLSBAD       FAIR      43  31  62 S14       30.01S
HOBBS          SUNNY     39  34  81 W12       30.01S WCI  32


$$




USA.gov is the U.S. government's official web portal to all federal, state and local government web resources and services.